Location: Betpouey
(42.8833°N, 0.0333°E)
Time: 08:19:21
(UTC+00:00)

CZ-2C R/B - Pass Details

Date: 01 December 2020
Orbit: 705 x 907 km, 98.1° (Epoch: 17 January)

Event Time Altitude Azimuth Distance (km) Brightness Sun altitude
Rises 17:14:43 0° 122° (ESE) 3,213 5.9 -8.8°
Reaches altitude 10° 17:17:44 10° 103° (ESE) 2,258 4.9 -9.3°
Maximum altitude 17:20:55 17° 63° (ENE) 1,776 4.3 -9.8°
Drops below altitude 10° 17:24:02 10° 23° (NNE) 2,212 5.0 -10.4°
Sets 17:26:56 0° 4° (N) 3,120 5.9 -10.9°
